owner,sensor,date,latitude,longitude,vertical_datum,sea_water_practical_salinity,qcFlag 
TABS,ioos:station:wmo:42049:1,2015-09-01T00:00:00Z,28.3507,-96.0058,2.0,35.5881,11111222 
TABS,ioos:station:wmo:42049:1,2015-09-01T00:30:00Z,28.3507,-96.0058,2.0,35.5831,11111222 
TABS,ioos:station:wmo:42049:1,2015-09-01T01:00:00Z,28.3507,-96.0058,2.0,35.5867,11111222 
TABS,ioos:station:wmo:42049:1,2015-09-01T01:30:00Z,28.3507,-96.0058,2.0,35.5866,11111222 
TABS,ioos:station:wmo:42049:1,2015-09-01T02:00:00Z,28.3507,-96.0058,2.0,35.594,11111222 
TABS,ioos:station:wmo:42049:1,2015-09-01T02:30:00Z,28.3507,-96.0058,2.0,35.6001,11111222 
TABS,ioos:station:wmo:42049:1,2015-09-01T03:00:00Z,28.3507,-96.0058,2.0,35.6004,11111222 
TABS,ioos:station:wmo:42049:1,2015-09-01T03:30:00Z,28.3507,-96.0058,2.0,35.6125,11111222 
TABS,ioos:station:wmo:42049:1,2015-09-01T04:00:00Z,28.3507,-96.0058,2.0,35.6258,11111222 
TABS,ioos:station:wmo:42049:1,2015-09-01T04:30:00Z,28.3507,-96.0058,2.0,35.6343,11111222 
TABS,ioos:station:wmo:42049:1,2015-09-01T05:00:00Z,28.3507,-96.0058,2.0,35.6424,11111222 
TABS,ioos:station:wmo:42049:1,2015-09-01T05:30:00Z,28.3507,-96.0058,2.0,35.6502,11111222 
TABS,ioos:station:wmo:42049:1,2015-09-01T06:00:00Z,28.3507,-96.0058,2.0,35.669,11111222 
TABS,ioos:station:wmo:42049:1,2015-09-01T06:30:00Z,28.3507,-96.0058,2.0,35.6677,11111222 
TABS,ioos:station:wmo:42049:1,2015-09-01T07:00:00Z,28.3507,-96.0058,2.0,35.671,11111222 
TABS,ioos:station:wmo:42049:1,2015-09-01T07:30:00Z,28.3507,-96.0058,2.0,35.6551,11111222 
TABS,ioos:station:wmo:42049:1,2015-09-01T08:00:00Z,28.3507,-96.0058,2.0,35.6591,11111222 
TABS,ioos:station:wmo:42049:1,2015-09-01T08:30:00Z,28.3507,-96.0058,2.0,35.6579,11111222 
TABS,ioos:station:wmo:42049:1,2015-09-01T09:00:00Z,28.3507,-96.0058,2.0,35.6557,11111222 
TABS,ioos:station:wmo:42049:1,2015-09-01T09:30:00Z,28.3507,-96.0058,2.0,35.6533,11111222 
TABS,ioos:station:wmo:42049:1,2015-09-01T10:00:00Z,28.3507,-96.0058,2.0,35.6529,11111222 
TABS,ioos:station:wmo:42049:1,2015-09-01T10:30:00Z,28.3507,-96.0058,2.0,35.6509,11111222 
TABS,ioos:station:wmo:42049:1,2015-09-01T11:00:00Z,28.3507,-96.0058,2.0,35.6497,11111222 
TABS,ioos:station:wmo:42049:1,2015-09-01T11:30:00Z,28.3507,-96.0058,2.0,35.6444,11111222 
TABS,ioos:station:wmo:42049:1,2015-09-01T12:00:00Z,28.3507,-96.0058,2.0,35.6378,11111222 
TABS,ioos:station:wmo:42049:1,2015-09-01T12:30:00Z,28.3507,-96.0058,2.0,35.6387,11111222 
TABS,ioos:station:wmo:42049:1,2015-09-01T13:00:00Z,28.3507,-96.0058,2.0,35.6388,11111222 
TABS,ioos:station:wmo:42049:1,2015-09-01T13:30:00Z,28.3507,-96.0058,2.0,35.6367,11111222 
TABS,ioos:station:wmo:42049:1,2015-09-01T14:00:00Z,28.3507,-96.0058,2.0,35.6341,11111222 
TABS,ioos:station:wmo:42049:1,2015-09-01T14:30:00Z,28.3507,-96.0058,2.0,35.6297,11111222 
TABS,ioos:station:wmo:42049:1,2015-09-01T15:00:00Z,28.3507,-96.0058,2.0,35.6352,11111222 
TABS,ioos:station:wmo:42049:1,2015-09-01T15:30:00Z,28.3507,-96.0058,2.0,35.6377,11111222 
TABS,ioos:station:wmo:42049:1,2015-09-01T16:00:00Z,28.3507,-96.0058,2.0,35.6351,11111222 
TABS,ioos:station:wmo:42049:1,2015-09-01T16:30:00Z,28.3507,-96.0058,2.0,35.6347,11111222 
TABS,ioos:station:wmo:42049:1,2015-09-01T17:00:00Z,28.3507,-96.0058,2.0,35.6344,11111222 
TABS,ioos:station:wmo:42049:1,2015-09-01T17:30:00Z,28.3507,-96.0058,2.0,35.6322,11111222 
TABS,ioos:station:wmo:42049:1,2015-09-01T18:00:00Z,28.3507,-96.0058,2.0,35.6332,11111222 
TABS,ioos:station:wmo:42049:1,2015-09-01T18:30:00Z,28.3507,-96.0058,2.0,35.6317,11111222 
TABS,ioos:station:wmo:42049:1,2015-09-01T19:00:00Z,28.3507,-96.0058,2.0,35.6318,11111222 
TABS,ioos:station:wmo:42049:1,2015-09-01T19:30:00Z,28.3507,-96.0058,2.0,35.6296,11111222 
TABS,ioos:station:wmo:42049:1,2015-09-01T20:00:00Z,28.3507,-96.0058,2.0,35.6294,11111222 
TABS,ioos:station:wmo:42049:1,2015-09-01T20:30:00Z,28.3507,-96.0058,2.0,35.626,11111222 
TABS,ioos:station:wmo:42049:1,2015-09-01T21:00:00Z,28.3507,-96.0058,2.0,35.6263,11111222 
TABS,ioos:station:wmo:42049:1,2015-09-01T21:30:00Z,28.3507,-96.0058,2.0,35.5585,11111222 
TABS,ioos:station:wmo:42049:1,2015-09-01T22:00:00Z,28.3507,-96.0058,2.0,35.5377,11111222 
TABS,ioos:station:wmo:42049:1,2015-09-01T22:30:00Z,28.3507,-96.0058,2.0,35.5096,11111222 
TABS,ioos:station:wmo:42049:1,2015-09-01T23:00:00Z,28.3507,-96.0058,2.0,35.4897,11111222 
TABS,ioos:station:wmo:42049:1,2015-09-01T23:30:00Z,28.3507,-96.0058,2.0,35.483,11111222 
TABS,ioos:station:wmo:42049:1,2015-09-02T00:00:00Z,28.3507,-96.0058,2.0,35.4782,11111222 
TABS,ioos:station:wmo:42049:1,2015-09-02T00:30:00Z,28.3507,-96.0058,2.0,35.471,11111222 
TABS,ioos:station:wmo:42049:1,2015-09-02T01:00:00Z,28.3507,-96.0058,2.0,35.4734,11111222 
TABS,ioos:station:wmo:42049:1,2015-09-02T01:30:00Z,28.3507,-96.0058,2.0,35.4796,11111222 
TABS,ioos:station:wmo:42049:1,2015-09-02T02:00:00Z,28.3507,-96.0058,2.0,35.4821,11111222 
TABS,ioos:station:wmo:42049:1,2015-09-02T02:30:00Z,28.3507,-96.0058,2.0,35.4896,11111222 
TABS,ioos:station:wmo:42049:1,2015-09-02T03:00:00Z,28.3507,-96.0058,2.0,35.492,11111222 
TABS,ioos:station:wmo:42049:1,2015-09-02T03:30:00Z,28.3507,-96.0058,2.0,35.4928,11111222 
TABS,ioos:station:wmo:42049:1,2015-09-02T04:00:00Z,28.3507,-96.0058,2.0,35.5071,11111222 
TABS,ioos:station:wmo:42049:1,2015-09-02T04:30:00Z,28.3507,-96.0058,2.0,35.5124,11111222 
TABS,ioos:station:wmo:42049:1,2015-09-02T05:00:00Z,28.3507,-96.0058,2.0,35.5164,11111222 
TABS,ioos:station:wmo:42049:1,2015-09-02T05:30:00Z,28.3507,-96.0058,2.0,35.5293,11111222 
TABS,ioos:station:wmo:42049:1,2015-09-02T06:00:00Z,28.3507,-96.0058,2.0,35.5401,11111222 
TABS,ioos:station:wmo:42049:1,2015-09-02T06:30:00Z,28.3507,-96.0058,2.0,35.5511,11111222 
TABS,ioos:station:wmo:42049:1,2015-09-02T07:00:00Z,28.3507,-96.0058,2.0,35.5618,11111222 
TABS,ioos:station:wmo:42049:1,2015-09-02T07:30:00Z,28.3507,-96.0058,2.0,35.5732,11111222 
TABS,ioos:station:wmo:42049:1,2015-09-02T08:00:00Z,28.3507,-96.0058,2.0,35.578,11111222 
TABS,ioos:station:wmo:42049:1,2015-09-02T08:30:00Z,28.3507,-96.0058,2.0,35.5811,11111222 
TABS,ioos:station:wmo:42049:1,2015-09-02T09:00:00Z,28.3507,-96.0058,2.0,35.5865,11111222 
TABS,ioos:station:wmo:42049:1,2015-09-02T09:30:00Z,28.3507,-96.0058,2.0,35.5903,11111222 
TABS,ioos:station:wmo:42049:1,2015-09-02T10:00:00Z,28.3507,-96.0058,2.0,35.5988,11111222 
TABS,ioos:station:wmo:42049:1,2015-09-02T10:30:00Z,28.3507,-96.0058,2.0,35.5993,11111222 
TABS,ioos:station:wmo:42049:1,2015-09-02T11:00:00Z,28.3507,-96.0058,2.0,35.6036,11111222 
TABS,ioos:station:wmo:42049:1,2015-09-02T11:30:00Z,28.3507,-96.0058,2.0,35.601,11111222 
TABS,ioos:station:wmo:42049:1,2015-09-02T12:00:00Z,28.3507,-96.0058,2.0,35.6025,11111222 
TABS,ioos:station:wmo:42049:1,2015-09-02T12:30:00Z,28.3507,-96.0058,2.0,35.5986,11111222 
TABS,ioos:station:wmo:42049:1,2015-09-02T13:00:00Z,28.3507,-96.0058,2.0,35.5892,11111222 
TABS,ioos:station:wmo:42049:1,2015-09-02T13:30:00Z,28.3507,-96.0058,2.0,35.5855,11111222 
TABS,ioos:station:wmo:42049:1,2015-09-02T14:00:00Z,28.3507,-96.0058,2.0,35.5283,11111222 
TABS,ioos:station:wmo:42049:1,2015-09-02T14:30:00Z,28.3507,-96.0058,2.0,35.4973,11111222 
TABS,ioos:station:wmo:42049:1,2015-09-02T15:00:00Z,28.3507,-96.0058,2.0,35.5378,11111222 
TABS,ioos:station:wmo:42049:1,2015-09-02T15:30:00Z,28.3507,-96.0058,2.0,35.5565,11111222 
TABS,ioos:station:wmo:42049:1,2015-09-02T16:00:00Z,28.3507,-96.0058,2.0,35.5476,11111222 
TABS,ioos:station:wmo:42049:1,2015-09-02T16:30:00Z,28.3507,-96.0058,2.0,35.5487,11111222 
TABS,ioos:station:wmo:42049:1,2015-09-02T17:00:00Z,28.3507,-96.0058,2.0,35.5213,11111222 
TABS,ioos:station:wmo:42049:1,2015-09-02T17:30:00Z,28.3507,-96.0058,2.0,35.497,11111222 
TABS,ioos:station:wmo:42049:1,2015-09-02T18:00:00Z,28.3507,-96.0058,2.0,35.5,11111222 
TABS,ioos:station:wmo:42049:1,2015-09-02T18:30:00Z,28.3507,-96.0058,2.0,35.5295,11111222 
TABS,ioos:station:wmo:42049:1,2015-09-02T19:00:00Z,28.3507,-96.0058,2.0,35.5158,11111222 
TABS,ioos:station:wmo:42049:1,2015-09-02T19:30:00Z,28.3507,-96.0058,2.0,35.5203,11111222 
TABS,ioos:station:wmo:42049:1,2015-09-02T20:00:00Z,28.3507,-96.0058,2.0,35.5252,11111222 
TABS,ioos:station:wmo:42049:1,2015-09-02T20:30:00Z,28.3507,-96.0058,2.0,35.4966,11111222 
TABS,ioos:station:wmo:42049:1,2015-09-02T21:00:00Z,28.3507,-96.0058,2.0,35.4516,11111222 
TABS,ioos:station:wmo:42049:1,2015-09-02T21:30:00Z,28.3507,-96.0058,2.0,35.4175,11111222 
TABS,ioos:station:wmo:42049:1,2015-09-02T22:00:00Z,28.3507,-96.0058,2.0,35.4094,11111222 
TABS,ioos:station:wmo:42049:1,2015-09-02T22:30:00Z,28.3507,-96.0058,2.0,35.4196,11111222 
TABS,ioos:station:wmo:42049:1,2015-09-02T23:00:00Z,28.3507,-96.0058,2.0,35.4272,11111222 
TABS,ioos:station:wmo:42049:1,2015-09-02T23:30:00Z,28.3507,-96.0058,2.0,35.4327,11111222 
TABS,ioos:station:wmo:42049:1,2015-09-03T00:00:00Z,28.3507,-96.0058,2.0,35.4396,11111222 
TABS,ioos:station:wmo:42049:1,2015-09-03T00:30:00Z,28.3507,-96.0058,2.0,35.4489,11111222 
TABS,ioos:station:wmo:42049:1,2015-09-03T01:00:00Z,28.3507,-96.0058,2.0,35.4509,11111222 
TABS,ioos:station:wmo:42049:1,2015-09-03T01:30:00Z,28.3507,-96.0058,2.0,35.4464,11111222 
TABS,ioos:station:wmo:42049:1,2015-09-03T02:00:00Z,28.3507,-96.0058,2.0,35.4434,11111222 
TABS,ioos:station:wmo:42049:1,2015-09-03T02:30:00Z,28.3507,-96.0058,2.0,35.4432,11111222 
TABS,ioos:station:wmo:42049:1,2015-09-03T03:00:00Z,28.3507,-96.0058,2.0,35.4423,11111222 
TABS,ioos:station:wmo:42049:1,2015-09-03T03:30:00Z,28.3507,-96.0058,2.0,35.4425,11111222 
TABS,ioos:station:wmo:42049:1,2015-09-03T04:00:00Z,28.3507,-96.0058,2.0,35.442,11111222 
TABS,ioos:station:wmo:42049:1,2015-09-03T04:30:00Z,28.3507,-96.0058,2.0,35.4416,11111222 
TABS,ioos:station:wmo:42049:1,2015-09-03T05:00:00Z,28.3507,-96.0058,2.0,35.4409,11111222 
TABS,ioos:station:wmo:42049:1,2015-09-03T05:30:00Z,28.3507,-96.0058,2.0,35.4424,11111222 
TABS,ioos:station:wmo:42049:1,2015-09-03T06:00:00Z,28.3507,-96.0058,2.0,35.4679,11111222 
TABS,ioos:station:wmo:42049:1,2015-09-03T06:30:00Z,28.3507,-96.0058,2.0,35.4876,11111222 
TABS,ioos:station:wmo:42049:1,2015-09-03T07:00:00Z,28.3507,-96.0058,2.0,35.4931,11111222 
TABS,ioos:station:wmo:42049:1,2015-09-03T07:30:00Z,28.3507,-96.0058,2.0,35.4976,11111222 
TABS,ioos:station:wmo:42049:1,2015-09-03T08:00:00Z,28.3507,-96.0058,2.0,35.4931,11111222 
TABS,ioos:station:wmo:42049:1,2015-09-03T08:30:00Z,28.3507,-96.0058,2.0,35.4872,11111222 
TABS,ioos:station:wmo:42049:1,2015-09-03T09:00:00Z,28.3507,-96.0058,2.0,35.4874,11111222 
TABS,ioos:station:wmo:42049:1,2015-09-03T09:30:00Z,28.3507,-96.0058,2.0,35.178,11111222 
TABS,ioos:station:wmo:42049:1,2015-09-03T10:00:00Z,28.3507,-96.0058,2.0,35.0771,11111222 
TABS,ioos:station:wmo:42049:1,2015-09-03T10:30:00Z,28.3507,-96.0058,2.0,34.8582,11111222 
TABS,ioos:station:wmo:42049:1,2015-09-03T11:00:00Z,28.3507,-96.0058,2.0,35.025,11111222 
TABS,ioos:station:wmo:42049:1,2015-09-03T11:30:00Z,28.3507,-96.0058,2.0,35.0157,11111222 
TABS,ioos:station:wmo:42049:1,2015-09-03T12:00:00Z,28.3507,-96.0058,2.0,35.1307,11111222 
TABS,ioos:station:wmo:42049:1,2015-09-03T12:30:00Z,28.3507,-96.0058,2.0,35.1225,11111222 
TABS,ioos:station:wmo:42049:1,2015-09-03T13:00:00Z,28.3507,-96.0058,2.0,35.1089,11111222 
TABS,ioos:station:wmo:42049:1,2015-09-03T13:30:00Z,28.3507,-96.0058,2.0,35.2021,11111222 
TABS,ioos:station:wmo:42049:1,2015-09-03T14:00:00Z,28.3507,-96.0058,2.0,35.2542,11111222 
TABS,ioos:station:wmo:42049:1,2015-09-03T14:30:00Z,28.3507,-96.0058,2.0,35.2645,11111222 
TABS,ioos:station:wmo:42049:1,2015-09-03T15:00:00Z,28.3507,-96.0058,2.0,35.2062,11111222 
TABS,ioos:station:wmo:42049:1,2015-09-03T15:30:00Z,28.3507,-96.0058,2.0,35.1989,11111222 
TABS,ioos:station:wmo:42049:1,2015-09-03T16:00:00Z,28.3507,-96.0058,2.0,35.2207,11111222 
TABS,ioos:station:wmo:42049:1,2015-09-03T16:30:00Z,28.3507,-96.0058,2.0,35.2153,11111222 
TABS,ioos:station:wmo:42049:1,2015-09-03T17:00:00Z,28.3507,-96.0058,2.0,35.237,11111222 
TABS,ioos:station:wmo:42049:1,2015-09-03T17:30:00Z,28.3507,-96.0058,2.0,35.2477,11111222 
TABS,ioos:station:wmo:42049:1,2015-09-03T18:00:00Z,28.3507,-96.0058,2.0,35.2246,11111222 
TABS,ioos:station:wmo:42049:1,2015-09-03T18:30:00Z,28.3507,-96.0058,2.0,35.2632,11111222 
TABS,ioos:station:wmo:42049:1,2015-09-03T19:00:00Z,28.3507,-96.0058,2.0,35.2375,11111222 
TABS,ioos:station:wmo:42049:1,2015-09-03T19:30:00Z,28.3507,-96.0058,2.0,35.239,11111222 
TABS,ioos:station:wmo:42049:1,2015-09-03T20:00:00Z,28.3507,-96.0058,2.0,35.2199,11111222 
TABS,ioos:station:wmo:42049:1,2015-09-03T20:30:00Z,28.3507,-96.0058,2.0,35.2401,11111222 
TABS,ioos:station:wmo:42049:1,2015-09-03T21:00:00Z,28.3507,-96.0058,2.0,35.24,11111222 
TABS,ioos:station:wmo:42049:1,2015-09-03T21:30:00Z,28.3507,-96.0058,2.0,35.2591,11111222 
TABS,ioos:station:wmo:42049:1,2015-09-03T22:00:00Z,28.3507,-96.0058,2.0,35.2579,11111222 
TABS,ioos:station:wmo:42049:1,2015-09-03T22:30:00Z,28.3507,-96.0058,2.0,35.2907,11111222 
TABS,ioos:station:wmo:42049:1,2015-09-03T23:00:00Z,28.3507,-96.0058,2.0,35.3238,11111222 
TABS,ioos:station:wmo:42049:1,2015-09-03T23:30:00Z,28.3507,-96.0058,2.0,35.3776,11111222 
TABS,ioos:station:wmo:42049:1,2015-09-04T00:00:00Z,28.3507,-96.0058,2.0,35.4106,11111222 
TABS,ioos:station:wmo:42049:1,2015-09-04T00:30:00Z,28.3507,-96.0058,2.0,35.5173,11111222 
TABS,ioos:station:wmo:42049:1,2015-09-04T01:00:00Z,28.3507,-96.0058,2.0,35.5508,11111222 
TABS,ioos:station:wmo:42049:1,2015-09-04T01:30:00Z,28.3507,-96.0058,2.0,35.551,11111222 
TABS,ioos:station:wmo:42049:1,2015-09-04T02:00:00Z,28.3507,-96.0058,2.0,35.5471,11111222 
TABS,ioos:station:wmo:42049:1,2015-09-04T02:30:00Z,28.3507,-96.0058,2.0,35.5452,11111222 
TABS,ioos:station:wmo:42049:1,2015-09-04T03:00:00Z,28.3507,-96.0058,2.0,35.546,11111222 
TABS,ioos:station:wmo:42049:1,2015-09-04T03:30:00Z,28.3507,-96.0058,2.0,35.5456,11111222 
TABS,ioos:station:wmo:42049:1,2015-09-04T04:00:00Z,28.3507,-96.0058,2.0,35.546,11111222 
TABS,ioos:station:wmo:42049:1,2015-09-04T04:30:00Z,28.3507,-96.0058,2.0,35.5466,11111222 
TABS,ioos:station:wmo:42049:1,2015-09-04T05:00:00Z,28.3507,-96.0058,2.0,35.5479,11111222 
TABS,ioos:station:wmo:42049:1,2015-09-04T05:30:00Z,28.3507,-96.0058,2.0,35.5462,11111222 
TABS,ioos:station:wmo:42049:1,2015-09-04T06:00:00Z,28.3507,-96.0058,2.0,35.5438,11111222 
TABS,ioos:station:wmo:42049:1,2015-09-04T06:30:00Z,28.3507,-96.0058,2.0,35.5435,11111222 
TABS,ioos:station:wmo:42049:1,2015-09-04T07:00:00Z,28.3507,-96.0058,2.0,35.5428,11111222 
TABS,ioos:station:wmo:42049:1,2015-09-04T07:30:00Z,28.3507,-96.0058,2.0,35.5444,11111222 
TABS,ioos:station:wmo:42049:1,2015-09-04T08:00:00Z,28.3507,-96.0058,2.0,35.545,11111222 
TABS,ioos:station:wmo:42049:1,2015-09-04T08:30:00Z,28.3507,-96.0058,2.0,35.5462,11111222 
TABS,ioos:station:wmo:42049:1,2015-09-04T09:00:00Z,28.3507,-96.0058,2.0,35.5471,11111222 
TABS,ioos:station:wmo:42049:1,2015-09-04T09:30:00Z,28.3507,-96.0058,2.0,35.5472,11111222 
TABS,ioos:station:wmo:42049:1,2015-09-04T10:00:00Z,28.3507,-96.0058,2.0,35.548,11111222 
TABS,ioos:station:wmo:42049:1,2015-09-04T10:30:00Z,28.3507,-96.0058,2.0,35.5487,11111222 
TABS,ioos:station:wmo:42049:1,2015-09-04T11:00:00Z,28.3507,-96.0058,2.0,35.5513,11111222 
TABS,ioos:station:wmo:42049:1,2015-09-04T11:30:00Z,28.3507,-96.0058,2.0,35.5519,11111222 
TABS,ioos:station:wmo:42049:1,2015-09-04T12:00:00Z,28.3507,-96.0058,2.0,35.5496,11111222 
TABS,ioos:station:wmo:42049:1,2015-09-04T12:30:00Z,28.3507,-96.0058,2.0,35.5491,11111222 
TABS,ioos:station:wmo:42049:1,2015-09-04T13:00:00Z,28.3507,-96.0058,2.0,35.5499,11111222 
TABS,ioos:station:wmo:42049:1,2015-09-04T13:30:00Z,28.3507,-96.0058,2.0,35.5491,11111222 
TABS,ioos:station:wmo:42049:1,2015-09-04T14:00:00Z,28.3507,-96.0058,2.0,35.5508,11111222 
TABS,ioos:station:wmo:42049:1,2015-09-04T14:30:00Z,28.3507,-96.0058,2.0,35.5524,11111222 
TABS,ioos:station:wmo:42049:1,2015-09-04T15:00:00Z,28.3507,-96.0058,2.0,35.5538,11111222 
TABS,ioos:station:wmo:42049:1,2015-09-04T15:30:00Z,28.3507,-96.0058,2.0,35.5549,11111222 
TABS,ioos:station:wmo:42049:1,2015-09-04T16:00:00Z,28.3507,-96.0058,2.0,35.5569,11111222 
TABS,ioos:station:wmo:42049:1,2015-09-04T16:30:00Z,28.3507,-96.0058,2.0,35.5575,11111222 
TABS,ioos:station:wmo:42049:1,2015-09-04T17:00:00Z,28.3507,-96.0058,2.0,35.5602,11111222 
TABS,ioos:station:wmo:42049:1,2015-09-04T17:30:00Z,28.3507,-96.0058,2.0,35.5601,11111222 
TABS,ioos:station:wmo:42049:1,2015-09-04T18:00:00Z,28.3507,-96.0058,2.0,35.568,11111222 
TABS,ioos:station:wmo:42049:1,2015-09-04T18:30:00Z,28.3507,-96.0058,2.0,35.5628,11111222 
TABS,ioos:station:wmo:42049:1,2015-09-04T19:00:00Z,28.3507,-96.0058,2.0,35.5607,11111222 
TABS,ioos:station:wmo:42049:1,2015-09-04T19:30:00Z,28.3507,-96.0058,2.0,35.563,11111222 
TABS,ioos:station:wmo:42049:1,2015-09-04T20:00:00Z,28.3507,-96.0058,2.0,35.5668,11111222 
TABS,ioos:station:wmo:42049:1,2015-09-04T20:30:00Z,28.3507,-96.0058,2.0,35.4898,11111222 
TABS,ioos:station:wmo:42049:1,2015-09-04T21:00:00Z,28.3507,-96.0058,2.0,35.4615,11111222 
TABS,ioos:station:wmo:42049:1,2015-09-04T21:30:00Z,28.3507,-96.0058,2.0,35.4631,11111222 
TABS,ioos:station:wmo:42049:1,2015-09-04T22:00:00Z,28.3507,-96.0058,2.0,35.4647,11111222 
TABS,ioos:station:wmo:42049:1,2015-09-04T22:30:00Z,28.3507,-96.0058,2.0,35.4633,11111222 
TABS,ioos:station:wmo:42049:1,2015-09-04T23:00:00Z,28.3507,-96.0058,2.0,35.4666,11111222 
TABS,ioos:station:wmo:42049:1,2015-09-04T23:30:00Z,28.3507,-96.0058,2.0,35.4714,11111222 
TABS,ioos:station:wmo:42049:1,2015-09-05T00:00:00Z,28.3507,-96.0058,2.0,35.4678,11111222 
TABS,ioos:station:wmo:42049:1,2015-09-05T00:30:00Z,28.3507,-96.0058,2.0,35.4663,11111222 
TABS,ioos:station:wmo:42049:1,2015-09-05T01:00:00Z,28.3507,-96.0058,2.0,35.4682,11111222 
TABS,ioos:station:wmo:42049:1,2015-09-05T01:30:00Z,28.3507,-96.0058,2.0,35.4664,11111222 
TABS,ioos:station:wmo:42049:1,2015-09-05T02:00:00Z,28.3507,-96.0058,2.0,35.4727,11111222 
TABS,ioos:station:wmo:42049:1,2015-09-05T02:30:00Z,28.3507,-96.0058,2.0,35.4694,11111222 
TABS,ioos:station:wmo:42049:1,2015-09-05T03:00:00Z,28.3507,-96.0058,2.0,35.4722,11111222 
TABS,ioos:station:wmo:42049:1,2015-09-05T03:30:00Z,28.3507,-96.0058,2.0,35.4693,11111222 
TABS,ioos:station:wmo:42049:1,2015-09-05T04:00:00Z,28.3507,-96.0058,2.0,35.467,11111222 
TABS,ioos:station:wmo:42049:1,2015-09-05T04:30:00Z,28.3507,-96.0058,2.0,35.4648,11111222 
TABS,ioos:station:wmo:42049:1,2015-09-05T05:00:00Z,28.3507,-96.0058,2.0,35.4616,11111222 
TABS,ioos:station:wmo:42049:1,2015-09-05T05:30:00Z,28.3507,-96.0058,2.0,35.4659,11111222 
TABS,ioos:station:wmo:42049:1,2015-09-05T06:00:00Z,28.3507,-96.0058,2.0,35.4635,11111222 
TABS,ioos:station:wmo:42049:1,2015-09-05T06:30:00Z,28.3507,-96.0058,2.0,35.4676,11111222 
TABS,ioos:station:wmo:42049:1,2015-09-05T07:00:00Z,28.3507,-96.0058,2.0,35.4687,11111222 
TABS,ioos:station:wmo:42049:1,2015-09-05T07:30:00Z,28.3507,-96.0058,2.0,35.4687,11111222 
TABS,ioos:station:wmo:42049:1,2015-09-05T08:00:00Z,28.3507,-96.0058,2.0,35.4686,11111222 
TABS,ioos:station:wmo:42049:1,2015-09-05T08:30:00Z,28.3507,-96.0058,2.0,35.467,11111222 
TABS,ioos:station:wmo:42049:1,2015-09-05T09:00:00Z,28.3507,-96.0058,2.0,35.4682,11111222 
TABS,ioos:station:wmo:42049:1,2015-09-05T09:30:00Z,28.3507,-96.0058,2.0,35.4695,11111222 
TABS,ioos:station:wmo:42049:1,2015-09-05T10:00:00Z,28.3507,-96.0058,2.0,35.4679,11111222 
TABS,ioos:station:wmo:42049:1,2015-09-05T10:30:00Z,28.3507,-96.0058,2.0,35.4709,11111222 
TABS,ioos:station:wmo:42049:1,2015-09-05T11:00:00Z,28.3507,-96.0058,2.0,35.4661,11111222 
TABS,ioos:station:wmo:42049:1,2015-09-05T11:30:00Z,28.3507,-96.0058,2.0,35.4669,11111222 
TABS,ioos:station:wmo:42049:1,2015-09-05T12:00:00Z,28.3507,-96.0058,2.0,35.467,11111222 
TABS,ioos:station:wmo:42049:1,2015-09-05T12:30:00Z,28.3507,-96.0058,2.0,35.4692,11111222 
TABS,ioos:station:wmo:42049:1,2015-09-05T13:00:00Z,28.3507,-96.0058,2.0,35.4697,11111222 
TABS,ioos:station:wmo:42049:1,2015-09-05T13:30:00Z,28.3507,-96.0058,2.0,35.4696,11111222 
TABS,ioos:station:wmo:42049:1,2015-09-05T14:00:00Z,28.3507,-96.0058,2.0,35.4683,11111222 
TABS,ioos:station:wmo:42049:1,2015-09-05T14:30:00Z,28.3507,-96.0058,2.0,35.4701,11111222 
TABS,ioos:station:wmo:42049:1,2015-09-05T15:00:00Z,28.3507,-96.0058,2.0,35.469,11111222 
TABS,ioos:station:wmo:42049:1,2015-09-05T15:30:00Z,28.3507,-96.0058,2.0,35.4657,11111222 
TABS,ioos:station:wmo:42049:1,2015-09-05T16:00:00Z,28.3507,-96.0058,2.0,35.4675,11111222 
TABS,ioos:station:wmo:42049:1,2015-09-05T16:30:00Z,28.3507,-96.0058,2.0,35.4712,11111222 
TABS,ioos:station:wmo:42049:1,2015-09-05T17:00:00Z,28.3507,-96.0058,2.0,35.4691,11111222 
TABS,ioos:station:wmo:42049:1,2015-09-05T17:30:00Z,28.3507,-96.0058,2.0,35.4685,11111222 
TABS,ioos:station:wmo:42049:1,2015-09-05T18:00:00Z,28.3507,-96.0058,2.0,35.4669,11111222 
TABS,ioos:station:wmo:42049:1,2015-09-05T18:30:00Z,28.3507,-96.0058,2.0,35.4714,11111222 
TABS,ioos:station:wmo:42049:1,2015-09-05T19:00:00Z,28.3507,-96.0058,2.0,35.4741,11111222 
TABS,ioos:station:wmo:42049:1,2015-09-05T19:30:00Z,28.3507,-96.0058,2.0,35.472,11111222 
TABS,ioos:station:wmo:42049:1,2015-09-05T20:00:00Z,28.3507,-96.0058,2.0,35.4769,11111222 
TABS,ioos:station:wmo:42049:1,2015-09-05T20:30:00Z,28.3507,-96.0058,2.0,35.4783,11111222 
TABS,ioos:station:wmo:42049:1,2015-09-05T21:00:00Z,28.3507,-96.0058,2.0,35.4811,11111222 
TABS,ioos:station:wmo:42049:1,2015-09-05T21:30:00Z,28.3507,-96.0058,2.0,35.4841,11111222 
TABS,ioos:station:wmo:42049:1,2015-09-05T22:00:00Z,28.3507,-96.0058,2.0,35.4864,11111222 
TABS,ioos:station:wmo:42049:1,2015-09-05T22:30:00Z,28.3507,-96.0058,2.0,35.4893,11111222 
TABS,ioos:station:wmo:42049:1,2015-09-05T23:00:00Z,28.3507,-96.0058,2.0,35.4908,11111222 
TABS,ioos:station:wmo:42049:1,2015-09-05T23:30:00Z,28.3507,-96.0058,2.0,35.4916,11111222 
TABS,ioos:station:wmo:42049:1,2015-09-06T00:00:00Z,28.3507,-96.0058,2.0,35.4923,11111222 
TABS,ioos:station:wmo:42049:1,2015-09-06T00:30:00Z,28.3507,-96.0058,2.0,35.4936,11111222 
TABS,ioos:station:wmo:42049:1,2015-09-06T01:00:00Z,28.3507,-96.0058,2.0,35.4958,11111222 
TABS,ioos:station:wmo:42049:1,2015-09-06T01:30:00Z,28.3507,-96.0058,2.0,35.4967,11111222 
TABS,ioos:station:wmo:42049:1,2015-09-06T02:00:00Z,28.3507,-96.0058,2.0,35.5001,11111222 
TABS,ioos:station:wmo:42049:1,2015-09-06T02:30:00Z,28.3507,-96.0058,2.0,35.5015,11111222 
TABS,ioos:station:wmo:42049:1,2015-09-06T03:00:00Z,28.3507,-96.0058,2.0,35.5021,11111222 
TABS,ioos:station:wmo:42049:1,2015-09-06T03:30:00Z,28.3507,-96.0058,2.0,35.5095,11111222 
TABS,ioos:station:wmo:42049:1,2015-09-06T04:00:00Z,28.3507,-96.0058,2.0,35.5053,11111222 
TABS,ioos:station:wmo:42049:1,2015-09-06T04:30:00Z,28.3507,-96.0058,2.0,35.5064,11111222 
TABS,ioos:station:wmo:42049:1,2015-09-06T05:00:00Z,28.3507,-96.0058,2.0,35.5056,11111222 
TABS,ioos:station:wmo:42049:1,2015-09-06T05:30:00Z,28.3507,-96.0058,2.0,35.5072,11111222 
TABS,ioos:station:wmo:42049:1,2015-09-06T06:00:00Z,28.3507,-96.0058,2.0,35.5067,11111222 
TABS,ioos:station:wmo:42049:1,2015-09-06T06:30:00Z,28.3507,-96.0058,2.0,35.5082,11111222 
TABS,ioos:station:wmo:42049:1,2015-09-06T07:00:00Z,28.3507,-96.0058,2.0,35.509,11111222 
TABS,ioos:station:wmo:42049:1,2015-09-06T07:30:00Z,28.3507,-96.0058,2.0,35.5097,11111222 
TABS,ioos:station:wmo:42049:1,2015-09-06T08:00:00Z,28.3507,-96.0058,2.0,35.5116,11111222 
TABS,ioos:station:wmo:42049:1,2015-09-06T08:30:00Z,28.3507,-96.0058,2.0,35.5129,11111222 
TABS,ioos:station:wmo:42049:1,2015-09-06T09:00:00Z,28.3507,-96.0058,2.0,35.5121,11111222 
TABS,ioos:station:wmo:42049:1,2015-09-06T09:30:00Z,28.3507,-96.0058,2.0,35.5181,11111222 
TABS,ioos:station:wmo:42049:1,2015-09-06T10:00:00Z,28.3507,-96.0058,2.0,35.5271,11111222 
TABS,ioos:station:wmo:42049:1,2015-09-06T10:30:00Z,28.3507,-96.0058,2.0,35.5349,11111222 
TABS,ioos:station:wmo:42049:1,2015-09-06T11:00:00Z,28.3507,-96.0058,2.0,35.5393,11111222 
TABS,ioos:station:wmo:42049:1,2015-09-06T11:30:00Z,28.3507,-96.0058,2.0,35.5492,11111222 
TABS,ioos:station:wmo:42049:1,2015-09-06T12:00:00Z,28.3507,-96.0058,2.0,35.5538,11111222 
TABS,ioos:station:wmo:42049:1,2015-09-06T12:30:00Z,28.3507,-96.0058,2.0,35.5529,11111222 